Location: *
(46.4000°N, 12.6667°E)
Time: 20:40:04
(UTC+00:00)

ISS - Visible Passes

Search period start: 03 December 2021 00:00
Search period end: 13 December 2021 00:00
Orbit: 417 x 423 km, 51.6° (Epoch: 03 December)

Date Brightness Start Highest point End Pass type
(mag) Time Alt. Az. Time Alt. Az. Time Alt. Az.
03 Dec -3.0 16:11:03 10° WNW 16:14:17 38° NNE 16:17:09 12° E visible
03 Dec -2.3 17:47:54 10° WNW 17:50:09 37° W 17:50:09 37° W visible
04 Dec -3.9 17:00:37 10° WNW 17:04:02 83° NNE 17:05:09 40° ESE visible
04 Dec -0.1 18:38:07 10° W 18:38:10 10° W 18:38:10 10° W visible
05 Dec -3.7 16:13:23 10° WNW 16:16:45 60° NNE 16:20:07 10° ESE visible
05 Dec -1.8 17:50:28 10° W 17:53:21 27° SW 17:53:21 27° SW visible
06 Dec -2.6 17:03:02 10° WNW 17:06:17 42° SW 17:08:47 15° SSE visible
07 Dec -3.3 16:15:43 10° WNW 16:19:05 66° SSW 16:22:27 10° SE visible
07 Dec -0.5 17:54:18 10° WSW 17:55:21 11° SW 17:56:24 10° SSW visible
08 Dec -0.8 17:05:58 10° W 17:08:19 18° SW 17:10:39 10° S visible
09 Dec -1.4 16:18:18 10° W 16:21:14 27° SW 16:24:09 10° SSE visible
11 Dec 0.0 16:22:15 10° WSW 16:23:09 11° SW 16:24:04 10° SSW visible
